User: anonymous   Login
Location: Endfield
(51.6667°N, 0.0667°W)
Time: 16:04:26
(UTC+00:00)
Language:

USA 245 - Orbit

View from above orbital plane
View from above orbital plane
View from above satellite
View from above satellite

Ground track
Ground track

The orbit data is extracted from the following two-line orbital elements,

1 39232U 13043A   24200.88428228 0.00034000  00000-0  34679-3 0    02
2 39232  97.9144 262.4086 0518352 220.5215 139.4784 14.79943116    05
Epoch (UTC): 18 July 2024 21:13:21
Eccentricity: 0.0518352
inclination: 97.9144°
perigee height: 266 km
apogee height: 993 km
right ascension of ascending node: 262.4086°
argument of perigee: 220.5215°
revolutions per day: 14.79943116
mean anomaly at epoch: 139.4784°
orbit number at epoch: 0

The dashed part of the orbit path shows where the satellite is in the earth's shadow,  

DLR